Location: Lac de la Montagne noire
(46.1952°N, 74.2701°W)
Time: 12:06:46
(UTC-04:00)

ISS - Pass Details

Date: 03 April 2019
Orbit: 408 x 410 km, 51.6° (Epoch: 27 April)

Event Time Altitude Azimuth Distance (km) Brightness Sun altitude
Rises 20:16:45 0° 296° (WNW) 2,339 2.2 -9.0°
Reaches altitude 10° 20:18:53 10° 302° (WNW) 1,475 0.5 -9.3°
Maximum altitude 20:22:06 48° 19° (NNE) 542 -3.2 -9.9°
Enters shadow 20:24:39 15° 92° (E) 1,214 -2.0 -10.3°
